STARLINK-32871, 62924

Orbit data source: Space-Track

STARLINK-32871, 62924 is a payload satellite owned by SpaceX/Seattle (US) in LEO that was launched on Sat, 08 Feb 2025 UTC via an FALCON 9 launch vehicle from the Air Force Eastern Test Range (AFETR). Payload-class satellites include a variety of spacecraft equipped with specific instruments for various scientific and technological missions. These include communications satellites like Starlink; space stations such as the ISS; scientific satellites like the Hubble; Earth observation satellites from companies like Planet Labs, Umbra, and HawkEye 360; GPS; miniature CubeSats for education and research; and military/defense satellites.

Loading next visibility...
Identifier
62924, 2025-027T
Orbit
LEO
Country
Flag of USUS
Related business
Manufacturer
SpaceX/Seattle
Mission
Operational Commercial Communications
Bus & Motor
STARLINK V2M, Unknown motor
Mass
730 kg wet, ~700 kg dry
Launch date (UTC)
2025-02-08 (7 months ago)
Launch vehicle
FALCON 9
Launch site
Air Force Eastern Test Range (AFETR)
Object type
Payload
Rocket body
Debris
Shape & HBR
Box + 2 Pan, 14.5 m
Radar Cross Section
33.884 m², Large (>1 m²)

Expand to show TLE details & history
Last TLE update: 2 days ago

TLE from 2 days ago
0 STARLINK-32871
1 62924U 25027T   25259.63994222  .00025221  00000-0  92246-3 0  9997
2 62924  43.0045  31.8065 0001880 281.4544  78.6097 15.27596135 34928
Epoch: 2025-09-16T15:21Z
TLE epoch observation values (Epoch: 2025-09-16T15:21:31.007Z)
Latitude
Longitude
165.59996°
Altitude
482.522 km
Speed
7.626 km/s
True Right ascension
02h 07m 13s
True Declination
0° 00' 00"
Sunlit
Object was in full shadow at epoch
Visualization orbit readout
Latitude
Unknown
Longitude
Unknown
Altitude
Unknown
Speed
Unknown
Apparent Right ascension
Unknown
Apparent Declination
Unknown
Sunlit
N/A
Visualization observer readout
Local Sidereal Time
08:08:27
Azimuth
Unknown
Elevation
Unknown
Doppler factor
Unknown
Orbital elements
Apogee altitude
486.235 km
Perigee altitude
483.655 km
Semi-major axis
6,863.082 km
Eccentricity
0.00019
Inclination
43.0045°
RAAN
31.8065°
Arg. of periapsis
281.4544°
True anomaly
78.63082°
Mean anomaly
78.6097°
Eccentric anomaly
78.62026°
Mean motion
3.81737 °/min
Orbital period
94.31 mins
BSTAR
0.00092246
Loading maneuver chart data...
Computing Atmospheric mass density...
Loading historical data...
Loading historical data...
Loading historical data...
Loading historical data...
Loading historical data...
Loading historical data...
Loading historical data...

Documentation

Showing up to 5 results
|